Preview of NWS' New Version of Forecast
This preview is not operational and should not be used for support decisions.
Latest weather observations around

Joplin, Joplin Regional Airport (KJLN)

Using International System of Units (Switch to English Units)
Date/ Time (CDT) Wind (kph) Vis. (km) Weather Sky Cond. Temp (°C) Rel. Humidity Wind Chill (°C) Heat Index (°C) Pressure Precip. (cm)
Air Dwpt 6 hour Altimeter (hPa) Sea level (hPa) 1 hr 3 hr 6 hr
Max Min
May 25 14:53 W 21 16.09 Mostly Clear FEW039 29 20     59%   31 1011.9 1010.5      
May 25 13:53 WSW 13 16.09 Mostly Clear FEW034 28 21     63%   30 1012.2 1011.1      
May 25 12:53 SW 15 16.09 Clear CLR 28 20     63%   29 1012.9 1011.8     0
May 25 11:53 SSW 11 16.09 Clear CLR 27 21     71%   28 1013.6 1012.3      
May 25 10:53 SW 9 16.09 Partly Cloudy FEW019 SCT120 25 21     77%   26 1014.6 1013.5      
May 25 10:20 W 9 16.09 Mostly Cloudy BKN019 BKN024 BKN110 24 21     79%   25 1015.2        
May 25 09:53 S 13 16.09 Partly Cloudy SCT110 25 21     77%   26 1015.2 1014.1   0  
May 25 08:53   16.09 Clear CLR 24 20     79%   24 1013.6   0    
May 25 07:53 SSW 9 16.09 Light Rain FEW021 SCT038 22 19     84%   22 1015.2 1014.2 0    
May 25 06:53 SSW 13 16.09 Mostly Cloudy BKN049 BKN080 22 18     79%   23 1014.9 1013.8     0
May 25 05:53 S 9 16.09 Mostly Cloudy BKN075 22 18     79%   23 1014.2 1013.1      
May 25 04:53 S 11 16.09 Clear CLR 22 18     81%   22 1013.9 1012.8      
May 25 03:53 S 15 16.09 Mostly Cloudy BKN120 22 18     79%   23 1014.2 1013.2   0  
May 25 02:53 SSE 21 16.09 Cloudy FEW090 OVC110 22 19     84%   22 1014.9 1013.9 0    
May 25 01:53 SE 8 16.09 Cloudy FEW070 OVC110 22 19     87%   22 1015.9 1014.9      
May 25 00:53 E 9 16.09 Cloudy OVC100 22 19     84%   22 1016.9 1015.7     0
May 24 23:53 Calm 16.09 Mostly Cloudy FEW029 SCT044 BKN060 22 19     84%   22 1017.3 1016.3      
May 24 22:53 SSW 8 16.09 Mostly Clear FEW110 22 19     84%   23 1016.9 1016.2      
May 24 21:53 SE 13 16.09 Mostly Clear FEW120 23 19     79%   24 1016.9 1015.8   0  
May 24 20:53 SE 9 16.09 Partly Cloudy SCT120 23 20     82%   24 1016.9 1015.9 0    
May 24 19:53 ESE 8 16.09 Light Rain FEW080 BKN100 BKN120 24 21     82%   24 1016.3 1015.5 0    
May 24 18:53 S 11 16.09 Partly Cloudy SCT110 25 21     77%   26 1016.9 1015.9     0
May 24 17:53 SSE 17 16.09 Clear CLR 26 19     67%   27 1016.6 1015.5      
May 24 16:53 SSE 13 16.09 Mostly Cloudy FEW036 BKN050 27 21     69%   29 1016.9 1015.8      
May 24 15:53 ESE 15 16.09 Partly Cloudy SCT039 27 22     72%   29 1017.3 1016.2 0 0  
May 24 15:09   16.09 Thunderstorms OVC038 26 21     74%   28 1018        
May 24 14:53 5 16.09 Mostly Cloudy BKN036 BKN110 28 21     65%   30 1018 1017.1      
May 24 13:53 9 16.09 Mostly Cloudy FEW032 SCT043 BKN075 28 22     69%   30 1018.6 1017.6      
May 24 12:53 5 16.09 Clear CLR 27 21     69%   29 1019.3 1018.4     1
May 24 11:53 E 9 16.09 Clear CLR 25 22     82%   26 1020 1018.9 0    
May 24 11:02 SE 5 8.05 Light Rain and Fog/Mist SCT039 BKN050 22 20     90%   22 1020   0    
May 24 10:53 Calm 4.83 Thunderstorms and Rain and Fog/Mist BKN040 21 20     93%     1020.3 1019.4 0    
May 24 10:37 WSW 11 1.61 Thunderstorms and Rain and Fog/Mist BKN044 OVC085 22 19     84%   23 1020.7   0    
May 24 09:53 SSW 8 16.09 Mostly Cloudy BKN055 25 19     71%   25 1020.3 1019.2      
May 24 08:53 SSE 8 16.09 Clear CLR 22 19     82%   23 1020 1019.2      
May 24 07:53 Calm 16.09 Mostly Cloudy BKN060 21 18     87%     1020.3 1019.5      
May 24 06:53 SE 5 16.09 Mostly Cloudy SCT060 BKN075 BKN100 20 18     87%     1019.7 1018.9      
May 24 05:53 SE 8 16.09 Cloudy OVC090 19 18     90%     1019.7 1018.7      
May 24 04:53 SE 8 16.09 Clear CLR 19 18     90%     1019 1018.3      
May 24 03:53 SE 5 16.09 Mostly Clear FEW110 19 18     90%     1019.3 1018.4      
May 24 02:53 ESE 9 16.09 Clear CLR 19 18     96%     1018.6 1018      
May 24 01:53 ESE 5 16.09 Clear CLR 19 18     96%     1019 1018      
May 24 00:53 SE 8 16.09 Clear CLR 19 18     93%     1019.3 1018.3      
May 23 23:53 Calm 16.09 Clear CLR 20 18     90%     1019.7 1018.5      
May 23 22:53 E 13 16.09 Clear CLR 21 19     90%     1019.3 1018.2      
May 23 21:53 Calm 14.48 Clear CLR 20 19     93%     1019 1018.1      
May 23 20:53 S 11 16.09 Clear CLR 21 19     90%     1018.3 1017.4      
May 23 19:53 SE 5 16.09 Clear CLR 22 19     84%   23 1018.3 1017.3      
May 23 18:53 ESE 11 16.09 Clear CLR 23 21     90%   23 1018.3 1017.6 0   1
May 23 17:53 ESE 13 16.09 Light Rain BKN110 23 21     90%   23 1018.6 1017.9 0    
May 23 16:53 SSW 9 16.09 Light Rain FEW050 BKN090 OVC110 23 21     87%   23 1018.3 1017.6 0    
May 23 16:47 SW 9 16.09 Light Rain BKN100 OVC120 23 21     89%   24 1018.6   0    
May 23 15:53 N 5 12.87 Thunderstorms and Rain and Fog/Mist FEW080 BKN110 22 21     93%   22 1019.3 1018.6 0 1  
May 23 14:53 S 21 8.05 Thunderstorms and Rain and Fog/Mist BKN065 BKN090 23 21     87%   23 1019 1018 1    
May 23 14:39 Calm 4.83 Thunderstorms and Heavy Rain and Fog/Mist BKN065 BKN090 23 20     84%   23 1018.6   1    
May 23 14:32 Calm 3.22 Rain BKN065 BKN090 23 20     82%   24 1018.3   0    
May 23 14:15 Calm 16.09 Thunderstorms BKN065 BKN090 28 19     59%   30 1018.3        
May 23 13:53 NE 5 16.09 Mostly Cloudy FEW043 SCT065 BKN090 28 20     61%   30 1018.6 1017.5      
May 23 12:53 E 5 16.09 Partly Cloudy SCT037 SCT055 29 19     57%   30 1019.3 1018.1      
May 23 11:53 Calm 16.09 Partly Cloudy SCT032 28 21     67%   30 1020 1018.7      
May 23 10:53 W 5 16.09 Partly Cloudy SCT030 27 20     67%   28 1020 1018.8      
May 23 09:53 SSW 5 16.09 Clear CLR 26 21     74%   26 1020 1019      
May 23 08:53 SSW 9 16.09 Clear CLR 24 21     82%   25 1020 1019      
May 23 07:53 SSE 8 16.09 Clear CLR 22 19     84%   23 1019.3 1018.3      
May 23 06:53 Calm 16.09 Clear CLR 19 18     93%     1019 1017.8      
May 23 05:53 Calm 16.09 Clear CLR 19 18     93%     1018.3 1017.1      
May 23 04:53 ESE 5 16.09 Clear CLR 18 18     97%     1017.6 1016.5      
May 23 03:53 SE 5 16.09 Clear CLR 19 18     90%     1017.3 1016      
May 23 02:53 SE 8 16.09 Clear CLR 19 18     93%     1017.3 1016      
May 23 01:53 Calm 16.09 Clear CLR 19 18     96%     1016.9 1015.9      
May 23 00:53 ESE 5 16.09 Clear CLR 21 19     87%     1016.9 1015.9      
May 22 23:53 SE 5 16.09 Clear CLR 22 19     82%   23 1016.9 1016      
May 22 22:53 SSE 11 16.09 Clear CLR 24 19     74%   24 1016.9 1015.8      
May 22 21:53 SSE 11 16.09 Partly Cloudy SCT055 24 19     74%   25 1016.6 1015.5      
May 22 20:53 ESE 9 16.09 Clear CLR 25 19     71%   25 1015.9 1014.7      
May 22 19:53 ENE 9 16.09 Clear CLR 27 20     65%   29 1015.2 1014.3      
May 22 18:53 NE 11 16.09 Clear CLR 28 19     59%   30 1015.6 1014.4      
May 22 17:53 N 13 16.09 Partly Cloudy SCT050 29 21     59%   32 1015.6 1014.5      
May 22 16:53 NNE 11 16.09 Mostly Cloudy SCT044 BKN055 29 20     59%   31 1015.6 1014.5      
May 22 15:53 N 9 16.09 Partly Cloudy FEW044 SCT055 30 20     55%   32 1015.9 1014.7      
May 22 14:53 5 16.09 Mostly Cloudy BKN045 30 19     53%   32 1016.6 1015.4      
May 22 13:53 5 16.09 Mostly Cloudy BKN045 30 21     57%   32 1016.9 1015.9      
May 22 12:53 8 16.09 Mostly Cloudy SCT039 BKN048 29 21     63%   31 1017.6 1016.4      
May 22 11:53 8 16.09 Mostly Clear FEW039 28 20     63%   29 1018 1016.9      
May 22 10:53 8 16.09 Mostly Clear FEW026 27 21     69%   29 1018.3 1017.2      
May 22 09:53 SSW 5 16.09 Clear CLR 25 21     77%   26 1018.3 1017.2      
May 22 08:53 Calm 16.09 Clear CLR 23 19     81%   23 1018.3 1017.4      
May 22 07:53 Calm 16.09 Clear CLR 21 18     84%     1018 1017.2      
May 22 06:53 Calm 12.87 Clear CLR 17 17     97%     1018 1016.9      
May 22 05:53 Calm 16.09 Clear CLR 17 16     93%     1016.9 1016.2      
May 22 04:53 ESE 8 16.09 Clear CLR 17 16     93%     1016.6 1015.5      
May 22 03:53 E 5 16.09 Clear CLR 18 16     90%     1015.9 1015.1      
May 15 06:53 NNW 9 16.09 Clear CLR 16 16     97%     1013.2 1012.2     2
May 14 05:53 S 17 16.09 Clear CLR 21 17     81%     1014.2 1013.1      
May 13 10:53   16.09 Clear CLR 27 20     67%   28 1016.9 1015.8      
May 12 18:53 S 28 16.09 Clear CLR 27 18     58%   28 1012.9 1011.8      
May 12 08:53 S 18 16.09 Clear CLR 23 18     71%   24 1014.6 1013.5      
May 12 00:53 SSE 13 16.09 Clear CLR 21 16     73%     1012.2 1011.3      
Jun 12 01:53 S 15 16.09 Clear CLR 23 18     76%   23 1013.2 1011.9      
Jun 11 21:53 S 17 16.09 Clear CLR 26 18     62%   26 1012.5 1011.3      
Jun 11 11:53   16.09 Partly Cloudy SCT032 29 22     65%   32 1013.9 1012.6      
Jun 11 10:53   16.09 Clear CLR 28 21     65%   31 1013.6 1012.1      
Jun 10 19:53 S 24 16.09 Clear CLR 27 19     62%   29 1010.2 1008.9      
Jun 10 17:53   16.09 Clear CLR 29 20     57%   31 1009.8 1008.8      
Jun 10 11:53   16.09 Clear CLR 28 19     60%   29 1012.5 1011.3      
Jun 09 14:53 S 21 16.09 Partly Cloudy SCT055 27 16     52%   27 1012.9 1012.1      
Jun 09 00:53 SE 5 16.09 Clear CLR 16 13     83%     1013.9 1013      
Jun 08 23:53 S 5 16.09 Clear   17 13     80%     1013.9 1013.1      
Jun 08 12:53 WNW 8 16.09 Clear CLR 26 12     41%   26 1017.6 1016.8      
Jun 08 06:53 Calm 16.09 Clear CLR 13 12     90%     1018 1017.4      
Jun 07 21:53 Calm 16.09 Clear CLR 18 13     75%     1017.6 1016.7      
Jun 07 14:53 NNE 15 16.09 Clear CLR 27 11     37%   27 1018 1017      
Jun 07 11:53 E 15 16.09 Mostly Clear FEW060 26 9     35%   26 1019 1018.2      
Jun 06 11:53 N 8 16.09 Clear CLR 28 18     55%   29 1014.6 1013.4      
Jun 06 10:53 N 8 16.09 Clear CLR 26 19     65%   26 1014.6 1013.3      
Notice The following observation data may not be complete
Jun 06 04:02   3.22 Fog/Mist CLR          %              
Jun 05 19:53 Calm 16.09 Mostly Cloudy BKN075 29 21     63%   31 1010.2 1008.9